| time (UTC) | temp F | wind direction | speed knots | gust knots | rain 1hr in | rain 24hr in | rain mn in | humidity % | barometer mb |
| 20260903043504 | 79 | 0 | 0.0 | 0.0 | 0.00 | 0.00 | 0.00 | 72 | 1016.6 |
| 20260903043004 | 80 | 0 | 0.0 | 0.0 | 0.00 | 0.00 | 0.00 | 72 | 1016.7 |
| 20260903042505 | 80 | 0 | 0.0 | 0.0 | 0.00 | 0.00 | 0.00 | 72 | 1016.9 |
| 20260903042004 | 80 | 0 | 0.0 | 0.0 | 0.00 | 0.00 | 0.00 | 71 | 1016.6 |
| 20260903041504 | 80 | 0 | 0.0 | 0.0 | 0.00 | 0.00 | 0.00 | 71 | 1016.7 |
| 20260903041004 | 80 | 0 | 0.0 | 0.0 | 0.00 | 0.00 | 0.00 | 71 | 1016.6 |
| 20260903040504 | 80 | 0 | 0.0 | 0.0 | 0.00 | 0.00 | 0.00 | 71 | 1016.6 |
| 20260903040004 | 80 | 0 | 0.0 | 0.0 | 0.00 | 0.00 | 0.00 | 71 | 1016.6 |
| 20260903035505 | 80 | 0 | 0.0 | 0.0 | 0.00 | 0.00 | 0.00 | 70 | 1016.7 |
| 20260903035004 | 81 | 0 | 0.0 | 0.0 | 0.00 | 0.00 | 0.00 | 70 | 1016.8 |
| 20260903034503 | 81 | 0 | 0.0 | 0.0 | 0.00 | 0.00 | 0.00 | 70 | 1016.6 |
| 20260903033504 | 81 | 0 | 0.0 | 0.0 | 0.00 | 0.00 | 0.00 | 70 | 1016.7 |
| 20260903033004 | 81 | 0 | 0.0 | 0.0 | 0.00 | 0.00 | 0.00 | 69 | 1016.8 |
| 20260903032504 | 81 | 37 | 0.0 | 0.9 | 0.00 | 0.00 | 0.00 | 69 | 1016.9 |
| 20260903032004 | 82 | 37 | 0.0 | 0.9 | 0.00 | 0.00 | 0.00 | 66 | 1016.9 |
| 20260903031505 | 82 | 0 | 0.0 | 0.0 | 0.00 | 0.00 | 0.00 | 66 | 1016.9 |
| 20260903030504 | 82 | 278 | 0.0 | 0.9 | 0.00 | 0.00 | 0.00 | 65 | 1017.0 |
| 20260903030005 | 82 | 261 | 0.0 | 0.9 | 0.00 | 0.00 | 0.00 | 65 | 1017.0 |
| 20260903025503 | 82 | 219 | 0.0 | 0.9 | 0.00 | 0.00 | 0.00 | 65 | 1017.1 |
| 20260903025004 | 83 | 219 | 0.0 | 0.9 | 0.00 | 0.00 | 0.00 | 65 | 1017.0 |
| 20260903024504 | 83 | 0 | 0.0 | 0.0 | 0.00 | 0.00 | 0.00 | 65 | 1017.2 |
| 20260903024004 | 83 | 0 | 0.0 | 0.0 | 0.00 | 0.00 | 0.00 | 64 | 1017.1 |
| 20260903023503 | 83 | 0 | 0.0 | 0.0 | 0.00 | 0.00 | 0.00 | 64 | 1017.2 |
| 20260903023004 | 83 | 261 | 0.0 | 0.9 | 0.00 | 0.00 | 0.00 | 64 | 1017.2 |
| 20260903022504 | 83 | 261 | 0.0 | 0.9 | 0.00 | 0.00 | 0.00 | 64 | 1017.0 |
| 20260903022004 | 84 | 261 | 0.0 | 0.9 | 0.00 | 0.00 | 0.00 | 64 | 1016.9 |
| 20260903021503 | 84 | 0 | 0.0 | 0.0 | 0.00 | 0.00 | 0.00 | 64 | 1017.2 |
| 20260903021005 | 84 | 0 | 0.0 | 0.0 | 0.00 | 0.00 | 0.00 | 63 | 1017.3 |
| 20260903020005 | 85 | 261 | 0.0 | 0.9 | 0.00 | 0.00 | 0.00 | 63 | 1017.0 |
| 20260903015503 | 85 | 261 | 0.0 | 0.9 | 0.00 | 0.00 | 0.00 | 62 | 1017.2 |
| 20260903015004 | 85 | 0 | 0.0 | 0.0 | 0.00 | 0.00 | 0.00 | 62 | 1016.9 |
| 20260903014506 | 85 | 37 | 0.0 | 0.9 | 0.00 | 0.00 | 0.00 | 62 | 1017.1 |
| 20260903014003 | 85 | 37 | 0.0 | 0.9 | 0.00 | 0.00 | 0.00 | 61 | 1017.1 |
| 20260903013504 | 86 | 0 | 0.0 | 0.0 | 0.00 | 0.00 | 0.00 | 61 | 1016.9 |
| 20260903012504 | 86 | 15 | 0.0 | 0.9 | 0.00 | 0.00 | 0.00 | 60 | 1016.9 |
| 20260903011504 | 87 | 351 | 0.0 | 0.9 | 0.00 | 0.00 | 0.00 | 59 | 1016.9 |
| 20260903011003 | 87 | 351 | 0.0 | 0.9 | 0.00 | 0.00 | 0.00 | 59 | 1016.8 |
| 20260903010505 | 88 | 335 | 0.0 | 0.9 | 0.00 | 0.00 | 0.00 | 58 | 1016.7 |
| 20260903010004 | 88 | 253 | 0.0 | 1.7 | 0.00 | 0.00 | 0.00 | 58 | 1016.6 |
| 20260903005504 | 88 | 255 | 0.0 | 1.7 | 0.00 | 0.00 | 0.00 | 57 | 1016.6 |
| 20260903005003 | 88 | 256 | 0.9 | 1.7 | 0.00 | 0.00 | 0.00 | 57 | 1016.7 |
| 20260903004005 | 89 | 248 | 0.9 | 2.6 | 0.00 | 0.00 | 0.00 | 57 | 1016.5 |
| 20260903003504 | 89 | 253 | 0.9 | 2.6 | 0.00 | 0.00 | 0.00 | 56 | 1016.2 |
| 20260903002504 | 90 | 245 | 0.9 | 1.7 | 0.00 | 0.00 | 0.00 | 56 | 1016.5 |
| 20260903002004 | 90 | 236 | 0.0 | 1.7 | 0.00 | 0.00 | 0.00 | 56 | 1016.4 |
| 20260903001504 | 90 | 226 | 0.9 | 2.6 | 0.00 | 0.00 | 0.00 | 56 | 1016.4 |
| 20260903000503 | 91 | 215 | 0.9 | 2.6 | 0.00 | 0.00 | 0.00 | 54 | 1016.4 |
| 20260903000004 | 91 | 214 | 1.7 | 2.6 | 0.00 | 0.00 | 0.00 | 54 | 1016.5 |
| 20260902235504 | 91 | 216 | 1.7 | 2.6 | 0.00 | 0.00 | 0.00 | 54 | 1016.4 |
| 20260902235004 | 92 | 221 | 0.9 | 2.6 | 0.00 | 0.00 | 0.00 | 54 | 1016.4 |
| 20260902234504 | 92 | 225 | 1.7 | 2.6 | 0.00 | 0.00 | 0.00 | 54 | 1016.5 |
| 20260902234003 | 92 | 237 | 0.9 | 2.6 | 0.00 | 0.00 | 0.00 | 54 | 1016.5 |
| 20260902233504 | 92 | 232 | 1.7 | 2.6 | 0.00 | 0.00 | 0.00 | 54 | 1016.5 |
| 20260902233004 | 92 | 227 | 0.9 | 2.6 | 0.00 | 0.00 | 0.00 | 54 | 1016.6 |
| 20260902232506 | 92 | 242 | 1.7 | 4.3 | 0.00 | 0.00 | 0.00 | 54 | 1016.6 |
| 20260902232004 | 92 | 234 | 1.7 | 5.2 | 0.00 | 0.00 | 0.00 | 54 | 1016.6 |
| 20260902231504 | 92 | 234 | 0.9 | 5.2 | 0.00 | 0.00 | 0.00 | 54 | 1016.5 |
| 20260902230503 | 92 | 252 | 1.7 | 4.3 | 0.00 | 0.00 | 0.00 | 54 | 1016.7 |
| 20260902230003 | 92 | 235 | 1.7 | 4.3 | 0.00 | 0.00 | 0.00 | 55 | 1016.7 |
| 20260902225003 | 94 | 246 | 2.6 | 4.3 | 0.00 | 0.00 | 0.00 | 54 | 1016.7 |
| 20260902224004 | 94 | 258 | 1.7 | 4.3 | 0.00 | 0.00 | 0.00 | 54 | 1016.7 |
| 20260902223504 | 94 | 231 | 1.7 | 5.2 | 0.00 | 0.00 | 0.00 | 54 | 1016.7 |
| 20260902223005 | 94 | 231 | 3.5 | 6.1 | 0.00 | 0.00 | 0.00 | 55 | 1016.6 |
| 20260902222004 | 94 | 241 | 4.3 | 6.1 | 0.00 | 0.00 | 0.00 | 55 | 1016.7 |
| 20260902221504 | 94 | 238 | 4.3 | 6.1 | 0.00 | 0.00 | 0.00 | 54 | 1016.6 |
| 20260902221004 | 94 | 238 | 2.6 | 7.0 | 0.00 | 0.00 | 0.00 | 54 | 1016.8 |
| 20260902220504 | 94 | 235 | 4.3 | 7.0 | 0.00 | 0.00 | 0.00 | 54 | 1016.8 |
| 20260902220004 | 94 | 235 | 2.6 | 5.2 | 0.00 | 0.00 | 0.00 | 55 | 1016.8 |
| 20260902215504 | 94 | 249 | 3.5 | 7.0 | 0.00 | 0.00 | 0.00 | 55 | 1016.7 |
| 20260902215004 | 94 | 255 | 2.6 | 7.0 | 0.00 | 0.00 | 0.00 | 54 | 1016.8 |
| 20260902214504 | 94 | 245 | 2.6 | 7.0 | 0.00 | 0.00 | 0.00 | 54 | 1017.0 |
| 20260902213504 | 94 | 248 | 4.3 | 6.1 | 0.00 | 0.00 | 0.00 | 54 | 1016.8 |
| 20260902212504 | 94 | 311 | 4.3 | 7.0 | 0.00 | 0.00 | 0.00 | 51 | 1016.9 |
| 20260902212004 | 94 | 313 | 6.1 | 7.0 | 0.00 | 0.00 | 0.00 | 52 | 1016.8 |
| 20260902211004 | 94 | 278 | 6.1 | 7.0 | 0.00 | 0.00 | 0.00 | 54 | 1016.9 |
| 20260902210504 | 94 | 276 | 4.3 | 7.8 | 0.00 | 0.00 | 0.00 | 55 | 1017.0 |
| 20260902210004 | 94 | 260 | 4.3 | 7.8 | 0.00 | 0.00 | 0.00 | 54 | 1016.9 |
| 20260902205508 | 94 | 273 | 6.1 | 7.8 | 0.00 | 0.00 | 0.00 | 54 | 1017.1 |
| 20260902205004 | 94 | 291 | 4.3 | 7.0 | 0.00 | 0.00 | 0.00 | 54 | 1017.0 |
| 20260902204504 | 94 | 310 | 2.6 | 7.0 | 0.00 | 0.00 | 0.00 | 54 | 1017.1 |
| 20260902204004 | 94 | 307 | 4.3 | 7.0 | 0.00 | 0.00 | 0.00 | 53 | 1016.9 |
| 20260902203004 | 94 | 311 | 4.3 | 6.1 | 0.00 | 0.00 | 0.00 | 54 | 1017.2 |
| 20260902202504 | 93 | 293 | 4.3 | 6.1 | 0.00 | 0.00 | 0.00 | 54 | 1017.3 |
| 20260902202003 | 93 | 269 | 3.5 | 7.8 | 0.00 | 0.00 | 0.00 | 54 | 1017.1 |
| 20260902201504 | 93 | 292 | 4.3 | 7.8 | 0.00 | 0.00 | 0.00 | 54 | 1017.2 |
| 20260902201005 | 93 | 323 | 5.2 | 7.8 | 0.00 | 0.00 | 0.00 | 53 | 1017.1 |
| 20260902200004 | 93 | 270 | 4.3 | 9.6 | 0.00 | 0.00 | 0.00 | 54 | 1017.5 |
| 20260902195505 | 93 | 251 | 4.3 | 7.8 | 0.00 | 0.00 | 0.00 | 55 | 1017.4 |
| 20260902195004 | 93 | 280 | 6.1 | 7.8 | 0.00 | 0.00 | 0.00 | 55 | 1017.5 |
| 20260902194004 | 91 | 276 | 3.5 | 7.8 | 0.00 | 0.00 | 0.00 | 54 | 1017.5 |
| 20260902193504 | 91 | 257 | 4.3 | 7.0 | 0.00 | 0.00 | 0.00 | 54 | 1017.6 |
| 20260902193004 | 91 | 275 | 5.2 | 7.0 | 0.00 | 0.00 | 0.00 | 55 | 1017.6 |
| 20260902192504 | 91 | 269 | 5.2 | 7.8 | 0.00 | 0.00 | 0.00 | 56 | 1017.7 |
| 20260902192004 | 90 | 257 | 5.2 | 7.8 | 0.00 | 0.00 | 0.00 | 56 | 1017.8 |
| 20260902191504 | 90 | 250 | 4.3 | 7.8 | 0.00 | 0.00 | 0.00 | 56 | 1017.6 |
| 20260902191003 | 90 | 242 | 6.1 | 9.6 | 0.00 | 0.00 | 0.00 | 59 | 1017.7 |
| 20260902190504 | 90 | 264 | 3.5 | 9.6 | 0.00 | 0.00 | 0.00 | 60 | 1017.8 |
| 20260902190004 | 90 | 298 | 7.0 | 8.7 | 0.00 | 0.00 | 0.00 | 57 | 1018.1 |
| 20260902185004 | 90 | 310 | 6.1 | 9.6 | 0.00 | 0.00 | 0.00 | 59 | 1017.9 |
| 20260902184505 | 90 | 298 | 5.2 | 9.6 | 0.00 | 0.00 | 0.00 | 58 | 1018.1 |
| 20260902184004 | 90 | 278 | 4.3 | 9.6 | 0.00 | 0.00 | 0.00 | 64 | 1017.9 |
| 20260902183503 | 90 | 277 | 4.3 | 9.6 | 0.00 | 0.00 | 0.00 | 62 | 1018.1 |
| 20260902182004 | 90 | 293 | 4.3 | 6.1 | 0.00 | 0.00 | 0.00 | 64 | 1018.2 |
| 20260902181504 | 90 | 313 | 5.2 | 9.6 | 0.00 | 0.00 | 0.00 | 64 | 1018.1 |
| 20260902181004 | 90 | 324 | 4.3 | 9.6 | 0.00 | 0.00 | 0.00 | 64 | 1018.2 |
| 20260902175503 | 90 | 289 | 6.1 | 7.8 | 0.00 | 0.00 | 0.00 | 64 | 1018.3 |
| 20260902175004 | 89 | 252 | 4.3 | 7.8 | 0.00 | 0.00 | 0.00 | 66 | 1018.3 |
| 20260902174504 | 89 | 277 | 3.5 | 7.8 | 0.00 | 0.00 | 0.00 | 66 | 1018.3 |
| 20260902174004 | 89 | 286 | 2.6 | 7.8 | 0.00 | 0.00 | 0.00 | 66 | 1018.4 |
| 20260902173503 | 89 | 273 | 4.3 | 8.7 | 0.00 | 0.00 | 0.00 | 66 | 1018.5 |
| 20260902173004 | 89 | 280 | 2.6 | 8.7 | 0.00 | 0.00 | 0.00 | 65 | 1018.5 |
| 20260902172504 | 89 | 265 | 3.5 | 4.3 | 0.00 | 0.00 | 0.00 | 65 | 1018.6 |
| 20260902172004 | 89 | 259 | 3.5 | 10.4 | 0.00 | 0.00 | 0.00 | 66 | 1018.4 |
| 20260902171503 | 89 | 329 | 3.5 | 10.4 | 0.00 | 0.00 | 0.00 | 65 | 1018.7 |
| 20260902171005 | 89 | 317 | 8.7 | 10.4 | 0.00 | 0.00 | 0.00 | 66 | 1018.8 |
| 20260902170504 | 88 | 305 | 4.3 | 7.0 | 0.00 | 0.00 | 0.00 | 65 | 1018.7 |
| 20260902165504 | 88 | 303 | 4.3 | 7.0 | 0.00 | 0.00 | 0.00 | 65 | 1018.7 |
| 20260902165003 | 88 | 297 | 4.3 | 6.1 | 0.00 | 0.00 | 0.00 | 66 | 1018.9 |
| 20260902164504 | 88 | 260 | 2.6 | 7.0 | 0.00 | 0.00 | 0.00 | 66 | 1018.8 |
| 20260902163503 | 88 | 251 | 4.3 | 8.7 | 0.00 | 0.00 | 0.00 | 65 | 1018.9 |
| 20260902163004 | 88 | 249 | 5.2 | 8.7 | 0.00 | 0.00 | 0.00 | 67 | 1018.8 |
| 20260902162504 | 88 | 276 | 5.2 | 7.8 | 0.00 | 0.00 | 0.00 | 67 | 1018.9 |
| 20260902162004 | 88 | 288 | 5.2 | 7.8 | 0.00 | 0.00 | 0.00 | 68 | 1019.1 |
| 20260902161503 | 88 | 332 | 4.3 | 7.8 | 0.00 | 0.00 | 0.00 | 69 | 1019.3 |
| 20260902161004 | 87 | 63 | 3.5 | 7.8 | 0.00 | 0.00 | 0.00 | 69 | 1019.3 |
| 20260902160504 | 87 | 61 | 6.1 | 7.8 | 0.00 | 0.00 | 0.00 | 68 | 1019.2 |
| 20260902160006 | 87 | 351 | 6.1 | 7.8 | 0.00 | 0.00 | 0.00 | 68 | 1019.2 |
| 20260902155504 | 87 | 1 | 2.6 | 6.1 | 0.00 | 0.00 | 0.00 | 68 | 1019.3 |
| 20260902155003 | 87 | 337 | 2.6 | 5.2 | 0.00 | 0.00 | 0.00 | 69 | 1019.1 |
| 20260902154504 | 87 | 303 | 0.9 | 6.1 | 0.00 | 0.00 | 0.00 | 69 | 1019.4 |
| 20260902153504 | 87 | 343 | 3.5 | 6.1 | 0.00 | 0.00 | 0.00 | 69 | 1019.5 |
| 20260902153005 | 87 | 323 | 3.5 | 5.2 | 0.00 | 0.00 | 0.00 | 69 | 1019.3 |
| 20260902152503 | 86 | 270 | 4.3 | 6.1 | 0.00 | 0.00 | 0.00 | 70 | 1019.4 |
| 20260902152004 | 86 | 279 | 3.5 | 6.1 | 0.00 | 0.00 | 0.00 | 69 | 1019.5 |
| 20260902151004 | 86 | 331 | 4.3 | 6.1 | 0.00 | 0.00 | 0.00 | 71 | 1019.3 |
| 20260902150505 | 86 | 21 | 2.6 | 6.1 | 0.00 | 0.00 | 0.00 | 72 | 1019.3 |
| 20260902150005 | 86 | 350 | 2.6 | 4.3 | 0.00 | 0.00 | 0.00 | 72 | 1019.3 |
| 20260902145504 | 85 | 318 | 2.6 | 5.2 | 0.00 | 0.00 | 0.00 | 71 | 1019.4 |
| 20260902145004 | 85 | 322 | 3.5 | 6.1 | 0.00 | 0.00 | 0.00 | 72 | 1019.4 |
| 20260902144503 | 85 | 323 | 2.6 | 6.1 | 0.00 | 0.00 | 0.00 | 71 | 1019.2 |
| 20260902144004 | 85 | 322 | 2.6 | 6.1 | 0.00 | 0.00 | 0.00 | 72 | 1019.4 |
| 20260902143504 | 84 | 327 | 2.6 | 6.1 | 0.00 | 0.00 | 0.00 | 72 | 1019.6 |
| 20260902143003 | 84 | 327 | 4.3 | 6.1 | 0.00 | 0.00 | 0.00 | 73 | 1019.3 |
| 20260902142504 | 84 | 346 | 2.6 | 5.2 | 0.00 | 0.00 | 0.00 | 74 | 1019.4 |
| 20260902142004 | 83 | 358 | 3.5 | 4.3 | 0.00 | 0.00 | 0.00 | 75 | 1019.3 |
| 20260902141504 | 83 | 307 | 1.7 | 4.3 | 0.00 | 0.00 | 0.00 | 75 | 1019.2 |
| 20260902141004 | 83 | 291 | 2.6 | 4.3 | 0.00 | 0.00 | 0.00 | 75 | 1019.2 |
| 20260902140504 | 82 | 268 | 2.6 | 4.3 | 0.00 | 0.00 | 0.00 | 76 | 1019.2 |
| 20260902140004 | 82 | 234 | 2.6 | 4.3 | 0.00 | 0.00 | 0.00 | 76 | 1019.3 |
| 20260902135504 | 81 | 255 | 3.5 | 4.3 | 0.00 | 0.00 | 0.00 | 79 | 1019.3 |
| 20260902135004 | 81 | 260 | 4.3 | 4.3 | 0.00 | 0.00 | 0.00 | 79 | 1019.2 |
| 20260902134505 | 80 | 91 | 2.6 | 4.3 | 0.00 | 0.00 | 0.00 | 79 | 1019.2 |
| 20260902134004 | 80 | 50 | 4.3 | 4.3 | 0.00 | 0.00 | 0.00 | 79 | 1019.3 |
| 20260902133504 | 79 | 32 | 1.7 | 4.3 | 0.00 | 0.00 | 0.00 | 79 | 1019.1 |
| 20260902132004 | 77 | 213 | 2.6 | 4.3 | 0.00 | 0.00 | 0.00 | 79 | 1019.2 |
| 20260902131503 | 77 | 221 | 1.7 | 4.3 | 0.00 | 0.00 | 0.00 | 79 | 1019.1 |
| 20260902130504 | 76 | 216 | 2.6 | 4.3 | 0.00 | 0.00 | 0.00 | 79 | 1019.2 |
| 20260902130004 | 76 | 217 | 0.9 | 4.3 | 0.00 | 0.00 | 0.00 | 79 | 1019.1 |
| 20260902125504 | 75 | 220 | 2.6 | 4.3 | 0.00 | 0.00 | 0.00 | 79 | 1019.1 |
| 20260902125004 | 74 | 223 | 1.7 | 2.6 | 0.00 | 0.00 | 0.00 | 78 | 1019.1 |
| 20260902124504 | 74 | 224 | 0.9 | 2.6 | 0.00 | 0.00 | 0.00 | 77 | 1019.1 |
| 20260902124005 | 74 | 239 | 0.9 | 2.6 | 0.00 | 0.00 | 0.00 | 77 | 1019.2 |
| 20260902123504 | 73 | 255 | 0.9 | 2.6 | 0.00 | 0.00 | 0.00 | 76 | 1019.1 |
| 20260902123004 | 73 | 236 | 0.9 | 0.9 | 0.00 | 0.00 | 0.00 | 75 | 1018.9 |
| 20260902122504 | 73 | 218 | 0.0 | 1.7 | 0.00 | 0.00 | 0.00 | 74 | 1019.1 |
| 20260902122003 | 73 | 226 | 0.9 | 1.7 | 0.00 | 0.00 | 0.00 | 72 | 1019.0 |
| 20260902121505 | 72 | 252 | 0.0 | 0.9 | 0.00 | 0.00 | 0.00 | 71 | 1018.9 |
| 20260902121004 | 72 | 298 | 0.0 | 0.9 | 0.00 | 0.00 | 0.00 | 73 | 1019.0 |
| 20260902120506 | 73 | 0 | 0.0 | 0.0 | 0.00 | 0.00 | 0.00 | 74 | 1018.8 |
| 20260902120005 | 73 | 0 | 0.0 | 0.0 | 0.00 | 0.00 | 0.00 | 74 | 1018.9 |
| 20260902115504 | 73 | 0 | 0.0 | 0.0 | 0.00 | 0.00 | 0.00 | 74 | 1018.9 |
| 20260902115006 | 73 | 0 | 0.0 | 0.0 | 0.00 | 0.00 | 0.00 | 74 | 1018.9 |
| 20260902114504 | 73 | 0 | 0.0 | 0.0 | 0.00 | 0.00 | 0.00 | 74 | 1018.7 |
| 20260902114005 | 73 | 0 | 0.0 | 0.0 | 0.00 | 0.00 | 0.00 | 74 | 1018.5 |
| 20260902113503 | 73 | 0 | 0.0 | 0.0 | 0.00 | 0.00 | 0.00 | 74 | 1018.7 |
| 20260902113004 | 73 | 0 | 0.0 | 0.0 | 0.00 | 0.00 | 0.00 | 74 | 1018.6 |
| 20260902112504 | 73 | 0 | 0.0 | 0.0 | 0.00 | 0.00 | 0.00 | 74 | 1018.8 |
| 20260902112003 | 73 | 0 | 0.0 | 0.0 | 0.00 | 0.00 | 0.00 | 74 | 1018.4 |
| 20260902111504 | 73 | 0 | 0.0 | 0.0 | 0.00 | 0.00 | 0.00 | 74 | 1018.3 |
| 20260902111004 | 73 | 0 | 0.0 | 0.0 | 0.00 | 0.00 | 0.00 | 74 | 1018.3 |
| 20260902110504 | 73 | 0 | 0.0 | 0.0 | 0.00 | 0.00 | 0.00 | 74 | 1018.2 |
| 20260902110007 | 73 | 0 | 0.0 | 0.0 | 0.00 | 0.00 | 0.00 | 74 | 1018.4 |
| 20260902105504 | 73 | 14 | 0.0 | 0.9 | 0.00 | 0.00 | 0.00 | 74 | 1018.4 |
| 20260902105005 | 73 | 14 | 0.0 | 0.9 | 0.00 | 0.00 | 0.00 | 74 | 1018.5 |
| 20260902104504 | 73 | 359 | 0.0 | 0.9 | 0.00 | 0.00 | 0.00 | 74 | 1018.6 |
| 20260902104003 | 73 | 5 | 0.0 | 0.9 | 0.00 | 0.00 | 0.00 | 74 | 1018.3 |
| 20260902103504 | 73 | 15 | 0.0 | 0.9 | 0.00 | 0.00 | 0.00 | 74 | 1018.3 |
| 20260902103004 | 73 | 0 | 0.0 | 0.0 | 0.00 | 0.00 | 0.00 | 74 | 1018.4 |
| 20260902102504 | 73 | 0 | 0.0 | 0.0 | 0.00 | 0.00 | 0.00 | 74 | 1018.2 |
| 20260902102004 | 73 | 0 | 0.0 | 0.0 | 0.00 | 0.00 | 0.00 | 73 | 1018.2 |
| 20260902101504 | 73 | 0 | 0.0 | 0.0 | 0.00 | 0.00 | 0.00 | 73 | 1018.1 |
| 20260902101003 | 73 | 0 | 0.0 | 0.0 | 0.00 | 0.00 | 0.00 | 73 | 1018.2 |
| 20260902100504 | 74 | 0 | 0.0 | 0.0 | 0.00 | 0.00 | 0.00 | 73 | 1018.3 |
| 20260902100005 | 74 | 0 | 0.0 | 0.0 | 0.00 | 0.00 | 0.00 | 73 | 1018.0 |
| 20260902095504 | 74 | 0 | 0.0 | 0.0 | 0.00 | 0.00 | 0.00 | 73 | 1018.2 |
| 20260902095005 | 74 | 0 | 0.0 | 0.0 | 0.00 | 0.00 | 0.00 | 73 | 1018.2 |
| 20260902094503 | 74 | 0 | 0.0 | 0.0 | 0.00 | 0.00 | 0.00 | 73 | 1018.1 |
| 20260902094004 | 74 | 0 | 0.0 | 0.0 | 0.00 | 0.00 | 0.00 | 73 | 1018.0 |
| 20260902093504 | 74 | 261 | 0.0 | 0.9 | 0.00 | 0.00 | 0.00 | 73 | 1018.3 |
| 20260902092504 | 74 | 261 | 0.0 | 0.9 | 0.00 | 0.00 | 0.00 | 73 | 1018.2 |
| 20260902091505 | 74 | 241 | 0.0 | 0.9 | 0.00 | 0.00 | 0.00 | 73 | 1018.2 |
| 20260902091004 | 74 | 217 | 0.0 | 0.9 | 0.00 | 0.00 | 0.00 | 73 | 1018.0 |
| 20260902090504 | 74 | 261 | 0.0 | 0.9 | 0.00 | 0.00 | 0.00 | 73 | 1018.1 |
| 20260902085503 | 74 | 0 | 0.0 | 0.0 | 0.00 | 0.00 | 0.00 | 73 | 1018.1 |
| 20260902085004 | 74 | 0 | 0.0 | 0.0 | 0.00 | 0.00 | 0.00 | 73 | 1018.0 |
| 20260902084504 | 75 | 0 | 0.0 | 0.0 | 0.00 | 0.00 | 0.00 | 73 | 1017.9 |
| 20260902084003 | 75 | 0 | 0.0 | 0.0 | 0.00 | 0.00 | 0.00 | 73 | 1018.1 |
| 20260902083503 | 75 | 0 | 0.0 | 0.0 | 0.00 | 0.00 | 0.00 | 73 | 1018.0 |
| 20260902083004 | 75 | 261 | 0.0 | 0.9 | 0.00 | 0.00 | 0.00 | 73 | 1017.7 |
| 20260902082505 | 75 | 261 | 0.0 | 0.9 | 0.00 | 0.00 | 0.00 | 73 | 1017.7 |
| 20260902081504 | 75 | 228 | 0.0 | 0.9 | 0.00 | 0.00 | 0.00 | 72 | 1017.8 |
| 20260902081004 | 75 | 217 | 0.0 | 0.9 | 0.00 | 0.00 | 0.00 | 72 | 1017.5 |
| 20260902080505 | 75 | 0 | 0.0 | 0.0 | 0.00 | 0.00 | 0.00 | 72 | 1017.8 |
| 20260902080004 | 75 | 0 | 0.0 | 0.0 | 0.00 | 0.00 | 0.00 | 72 | 1017.6 |
| 20260902075505 | 75 | 0 | 0.0 | 0.0 | 0.00 | 0.00 | 0.00 | 72 | 1017.5 |
| 20260902075004 | 76 | 0 | 0.0 | 0.0 | 0.00 | 0.00 | 0.00 | 72 | 1017.7 |
| 20260902074504 | 76 | 0 | 0.0 | 0.0 | 0.00 | 0.00 | 0.00 | 72 | 1017.6 |
| 20260902074004 | 76 | 0 | 0.0 | 0.0 | 0.00 | 0.00 | 0.00 | 72 | 1017.6 |
| 20260902073503 | 76 | 0 | 0.0 | 0.0 | 0.00 | 0.00 | 0.00 | 72 | 1017.6 |
| 20260902073004 | 76 | 261 | 0.0 | 0.9 | 0.00 | 0.00 | 0.00 | 72 | 1017.7 |
| 20260902072504 | 76 | 261 | 0.0 | 0.9 | 0.00 | 0.00 | 0.00 | 72 | 1017.6 |
| 20260902072004 | 76 | 0 | 0.0 | 0.0 | 0.00 | 0.00 | 0.00 | 71 | 1017.6 |
| 20260902071504 | 76 | 0 | 0.0 | 0.0 | 0.00 | 0.00 | 0.00 | 71 | 1017.5 |
| 20260902071003 | 76 | 0 | 0.0 | 0.0 | 0.00 | 0.00 | 0.00 | 71 | 1017.6 |
| 20260902070505 | 76 | 0 | 0.0 | 0.0 | 0.00 | 0.00 | 0.00 | 71 | 1017.5 |
| 20260902070006 | 76 | 0 | 0.0 | 0.0 | 0.00 | 0.00 | 0.00 | 71 | 1017.4 |
| 20260902065504 | 76 | 0 | 0.0 | 0.0 | 0.00 | 0.00 | 0.00 | 71 | 1017.6 |
| 20260902065004 | 76 | 0 | 0.0 | 0.0 | 0.00 | 0.00 | 0.00 | 71 | 1017.5 |
| 20260902064004 | 77 | 0 | 0.0 | 0.0 | 0.00 | 0.00 | 0.00 | 71 | 1017.6 |
| 20260902063504 | 77 | 0 | 0.0 | 0.0 | 0.00 | 0.00 | 0.00 | 71 | 1017.5 |
| 20260902063005 | 77 | 261 | 0.0 | 0.9 | 0.00 | 0.00 | 0.00 | 71 | 1017.5 |
| 20260902062503 | 77 | 261 | 0.0 | 0.9 | 0.00 | 0.00 | 0.00 | 71 | 1017.3 |
| 20260902062003 | 77 | 278 | 0.0 | 0.9 | 0.00 | 0.00 | 0.00 | 71 | 1017.4 |
| 20260902060504 | 77 | 242 | 0.0 | 0.9 | 0.00 | 0.00 | 0.00 | 71 | 1017.6 |
| 20260902060004 | 77 | 242 | 0.0 | 0.9 | 0.00 | 0.00 | 0.00 | 71 | 1017.5 |
| 20260902055504 | 77 | 244 | 0.0 | 0.9 | 0.00 | 0.00 | 0.00 | 70 | 1017.5 |
| 20260902055003 | 78 | 251 | 0.0 | 0.9 | 0.00 | 0.00 | 0.00 | 70 | 1017.5 |
| 20260902054004 | 78 | 250 | 0.0 | 0.9 | 0.00 | 0.00 | 0.00 | 70 | 1017.5 |
| 20260902053004 | 78 | 269 | 0.0 | 0.9 | 0.00 | 0.00 | 0.00 | 70 | 1017.5 |
| 20260902052503 | 78 | 243 | 0.0 | 0.9 | 0.00 | 0.00 | 0.00 | 70 | 1017.6 |
| 20260902051504 | 78 | 261 | 0.0 | 0.9 | 0.00 | 0.00 | 0.00 | 70 | 1017.6 |
| 20260902051004 | 78 | 261 | 0.0 | 0.9 | 0.00 | 0.00 | 0.00 | 70 | 1017.6 |
| 20260902050504 | 78 | 0 | 0.0 | 0.0 | 0.00 | 0.00 | 0.00 | 70 | 1017.5 |
| 20260902050007 | 79 | 0 | 0.0 | 0.0 | 0.00 | 0.00 | 0.00 | 69 | 1017.5 |
| 20260902045004 | 79 | 0 | 0.0 | 0.0 | 0.00 | 0.00 | 0.00 | 69 | 1017.7 |
| 20260902044504 | 79 | 261 | 0.0 | 0.9 | 0.00 | 0.00 | 0.00 | 69 | 1017.8 |
| 20260902044005 | 79 | 237 | 0.0 | 0.9 | 0.00 | 0.00 | 0.00 | 69 | 1017.7 |